Weather Roundup
Issued by NWS Springfield, MO

Home | Current Version | Previous Version | Text Only | Print | Product List | Glossary On
Versions: 1 2 3 4 5 6 7 8 9 10 11 12 13 14 15 16 17 18 19 20 21 22 23 24 25 26 27 28 29 30 31 32 33 34 35 36 37 38 39 40 41 42 43 44 45 46 47 48 49 50
000
NZUS99 KSGF 280407
HRRSGF

HOURLY WEATHER
NATIONAL WEATHER SERVICE SPRINGFIELD MO
1100 PM CDT TUE JUN 27 2017

......SGF CWA......

CITY           SKY/WX    TMP DP  RH WIND       PRES   REMARKS
SPRINGFIELD    CLEAR     73  64  73 S13       30.00R
JOPLIN         CLEAR     75  65  70 S12       29.96R
WEST PLAINS    CLEAR     68  63  84 SE3       30.07R
ROLLA          CLEAR     68  62  81 SE8       30.02R
OSAGE BEACH    CLEAR     70  64  81 SE6       30.01R
BRANSON        CLEAR     68  64  88 CALM      30.05R

......SURROUNDING SGF CWA......

CITY           SKY/WX    TMP DP  RH WIND       PRES   REMARKS
CHANUTE          N/A     77  63  61 MISG      29.92R
PARSONS        CLEAR     76  64  66 S7        29.94R
COFFEYVILLE    CLEAR     75  65  70 S10       29.93R HAZE
EMPORIA        CLOUDY    76  63  64 S20G29    29.87R
GROVE OK       CLEAR     75  66  73 SE7G16    29.98S
ROGERS AR      CLEAR     72  63  73 SE9       30.02S
SILOAM SPRINGS CLEAR     72  63  73 SE7       30.01R
HARRISON AR    CLEAR     68  63  84 S6        30.05R
NEAR YELLVILLE CLEAR     72  61  68 SE3       30.02S

......KANSAS AND MISSOURI......

CITY           SKY/WX    TMP DP  RH WIND       PRES   REMARKS
KANSAS CTY INT MOCLDY    75  67  76 S12       29.90R
DOWNTOWN KC    CLEAR     77  67  71 S12G20    29.90R
COLUMBIA       PTCLDY    69  63  81 S7        29.99S
SEDALIA        MOCLDY    73  67  81 S10       29.97R
ST JOSEPH      CLEAR     75  67  76 SE14      29.86F
ST LOUIS       CLEAR     75  52  44 SE13      30.03R
SPIRIT OF STL  CLEAR     71  55  56 VRB3      30.02R
KIRKSVILLE     MOCLDY    69  57  65 S9        29.96S
WICHITA        PTCLDY    79  66  64 S17       29.86R
TOPEKA         CLOUDY    76  66  71 SE13      29.86R
OLATHE         CLEAR     72  67  84 S13       29.92R

......TENNESSEE......

CITY           SKY/WX    TMP DP  RH WIND       PRES   REMARKS
MEMPHIS        PTCLDY    78  64  61 E6        30.06R
NASHVILLE      CLEAR     68  58  70 S3        30.11R

......ARKANSAS.......

CITY           SKY/WX    TMP DP  RH WIND       PRES   REMARKS
FAYETTEVILLE   CLEAR     71  62  73 CALM      30.02R
FT SMITH       CLEAR     74  67  78 E3        29.99R
LITTLE ROCK    PTCLDY    72  67  84 SE3       30.04R

......OKLAHOMA.......

CITY           SKY/WX    TMP DP  RH WIND       PRES   REMARKS
TULSA          PTCLDY    80  68  66 SE12      29.92R
PONCA CITY     PTCLDY    80  65  59 SE15      29.89R
MCALESTER      PTCLDY    78  66  66 SE5       29.97S
OKLAHOMA CITY  PTCLDY    78  66  66 S16G24    29.93R

......IOWA............

CITY           SKY/WX    TMP DP  RH WIND       PRES   REMARKS
DES MOINES     MOCLDY    72  56  57 SE10      29.88F
QUAD CITIES    CLEAR     62  50  64 S7        29.99R

......ILLINOIS........

CITY           SKY/WX    TMP DP  RH WIND       PRES   REMARKS
QUINCY         CLEAR     67  53  61 SE9       29.99S
CHICAGO        PTCLDY    67  45  45 S9        30.03S




USA.gov is the U.S. government's official web portal to all federal, state and local government web resources and services.